When you browse on this site, cookies collect data to enhance your experience and personalize the content and advertising you see.
Visit our Privacy Policy to learn more. By continuing to use the site, you agree to this use of cookies and data.
  • In Austria
  • List of Countries
  • For 7 days
  • Water Temperature
  • Weather Map
  • News
  • Weather Widgets
  • user-avatar
    Login

    Hourly Weather Kaposvar

    Today, 22 January, Wednesday

    Time Temperature Precipitation Wind Pressure Humidity
    00:00 0°C° 0 mm 1 mps 763 mmHg 87%
    01:00 0°C° 0 mm 1 mps 763 mmHg 88%
    02:00 0°C° 0 mm 1 mps 762 mmHg 88%
    03:00 -1°C° 0 mm 1 mps 761 mmHg 88%
    04:00 -3°C° 0 mm 2 mps 761 mmHg 89%
    05:00 -3°C° 0 mm 2 mps 760 mmHg 89%
    06:00 -1°C° 0 mm 1 mps 760 mmHg 89%
    07:00 -1°C° 0 mm 1 mps 760 mmHg 92%
    08:00 0°C° 0 mm 1 mps 760 mmHg 86%
    09:00 +1°C° 0 mm 1 mps 759 mmHg 80%
    10:00 +2°C° 0 mm 1 mps 759 mmHg 74%
    11:00 +3°C° 0 mm 1 mps 758 mmHg 70%
    12:00 +4°C° 0 mm 1 mps 758 mmHg 66%
    13:00 +4°C° 0 mm 2 mps 757 mmHg 62%
    14:00 +3°C° 0 mm 2 mps 757 mmHg 66%
    15:00 +2°C° 0 mm 2 mps 756 mmHg 70%
    16:00 +1°C° 0 mm 3 mps 756 mmHg 73%
    17:00 +1°C° 0 mm 2 mps 756 mmHg 75%
    18:00 -1°C° 0 mm 2 mps 756 mmHg 76%
    19:00 -1°C° 0 mm 2 mps 757 mmHg 78%
    20:00 -1°C° 0 mm 3 mps 757 mmHg 75%
    21:00 -1°C° 0 mm 3 mps 758 mmHg 73%
    22:00 0°C° 0 mm 3 mps 758 mmHg 70%
    23:00 0°C° 0 mm 3 mps 759 mmHg 73%

    Tomorrow, 23 January, Thursday

    Time Temperature Precipitation Wind Pressure Humidity
    00:00 0°C° 0 mm 3 mps 760 mmHg 75%
    01:00 0°C° 0 mm 3 mps 760 mmHg 77%
    02:00 -1°C° 0 mm 2 mps 760 mmHg 79%
    03:00 -1°C° 0 mm 2 mps 760 mmHg 82%
    04:00 +1°C° 0 mm 1 mps 760 mmHg 84%
    05:00 0°C° 0 mm 1 mps 761 mmHg 84%
    06:00 0°C° 0 mm 1 mps 761 mmHg 85%
    07:00 -1°C° 0 mm 0 mps 761 mmHg 86%
    08:00 0°C° 0 mm 0 mps 762 mmHg 80%
    09:00 +1°C° 0 mm 0 mps 762 mmHg 75%
    10:00 +3°C° 0 mm 0 mps 762 mmHg 69%
    11:00 +3°C° 0 mm 0 mps 762 mmHg 66%
    12:00 +5°C° 0 mm 1 mps 761 mmHg 62%
    13:00 +6°C° 0 mm 1 mps 761 mmHg 59%
    14:00 +5°C° 0 mm 1 mps 761 mmHg 62%
    15:00 +5°C° 0 mm 1 mps 760 mmHg 65%
    16:00 +4°C° 0 mm 1 mps 760 mmHg 68%
    17:00 +3°C° 0 mm 1 mps 759 mmHg 72%
    18:00 +2°C° 0 mm 1 mps 759 mmHg 75%
    19:00 -1°C° 0 mm 2 mps 759 mmHg 79%
    20:00 -1°C° 0 mm 2 mps 759 mmHg 79%
    21:00 -1°C° 0 mm 2 mps 759 mmHg 80%
    22:00 -1°C° 0 mm 2 mps 758 mmHg 80%
    23:00 -1°C° 0 mm 2 mps 758 mmHg 79%

    Day after tomorrow, 24 January, Friday

    Time Temperature Precipitation Wind Pressure Humidity
    00:00 -2°C° 0 mm 2 mps 758 mmHg 78%
    01:00 -2°C° 0 mm 2 mps 758 mmHg 77%
    02:00 -2°C° 0 mm 2 mps 757 mmHg 76%
    03:00 -2°C° 0 mm 2 mps 757 mmHg 76%
    04:00 -2°C° 0 mm 2 mps 756 mmHg 75%
    05:00 -2°C° 0 mm 2 mps 756 mmHg 76%
    06:00 -2°C° 0 mm 2 mps 756 mmHg 77%
    07:00 -3°C° 0 mm 2 mps 756 mmHg 78%
    08:00 -2°C° 0 mm 2 mps 756 mmHg 73%
    09:00 -1°C° 0 mm 2 mps 756 mmHg 68%
    10:00 +1°C° 0 mm 2 mps 756 mmHg 64%
    11:00 +2°C° 0 mm 2 mps 755 mmHg 60%
    12:00 +3°C° 0 mm 2 mps 755 mmHg 56%
    13:00 +4°C° 0 mm 2 mps 755 mmHg 52%
    14:00 +4°C° 0 mm 2 mps 754 mmHg 56%
    15:00 +3°C° 0 mm 2 mps 754 mmHg 60%
    16:00 +3°C° 0 mm 2 mps 753 mmHg 65%
    17:00 +2°C° 0 mm 2 mps 753 mmHg 69%
    18:00 +1°C° 0 mm 2 mps 753 mmHg 73%
    19:00 +1°C° 0 mm 2 mps 753 mmHg 77%
    20:00 +1°C° 0 mm 2 mps 753 mmHg 78%
    21:00 +1°C° 0 mm 2 mps 753 mmHg 80%
    22:00 +1°C° 0 mm 2 mps 752 mmHg 81%
    23:00 +1°C° 0 mm 2 mps 752 mmHg 83%

    25 January, Saturday

    Time Temperature Precipitation Wind Pressure Humidity
    00:00 +1°C° 0 mm 2 mps 752 mmHg 86%
    01:00 +2°C° 0 mm 2 mps 752 mmHg 88%
    02:00 +2°C° 0 mm 2 mps 752 mmHg 89%
    03:00 +1°C° 0 mm 3 mps 751 mmHg 90%
    04:00 +1°C° 0 mm 3 mps 751 mmHg 90%
    05:00 +3°C° 0 mm 2 mps 751 mmHg 90%
    06:00 +3°C° 0 mm 2 mps 751 mmHg 90%
    07:00 +3°C° 0 mm 2 mps 751 mmHg 89%
    08:00 +4°C° 0 mm 1 mps 751 mmHg 87%
    09:00 +5°C° 0 mm 1 mps 752 mmHg 85%
    10:00 +6°C° 0 mm 1 mps 752 mmHg 83%
    11:00 +6°C° 0 mm 1 mps 752 mmHg 82%
    12:00 +7°C° 0 mm 1 mps 751 mmHg 81%
    13:00 +6°C° 0 mm 0 mps 751 mmHg 80%
    14:00 +7°C° 0 mm 1 mps 751 mmHg 81%
    15:00 +7°C° 0 mm 1 mps 751 mmHg 82%
    16:00 +7°C° 0 mm 1 mps 750 mmHg 83%
    17:00 +6°C° 0 mm 1 mps 751 mmHg 85%
    18:00 +5°C° 0 mm 0 mps 751 mmHg 88%
    19:00 +5°C° 0 mm 0 mps 751 mmHg 90%
    20:00 +5°C° 0.1 mm 0 mps 751 mmHg 91%
    21:00 +5°C° 0.1 mm 0 mps 751 mmHg 91%
    22:00 +5°C° 0.1 mm 0 mps 751 mmHg 92%
    23:00 +5°C° 0.1 mm 0 mps 751 mmHg 92%

    26 January, Sunday

    Time Temperature Precipitation Wind Pressure Humidity
    00:00 +5°C° 0.1 mm 0 mps 751 mmHg 93%
    01:00 +5°C° 0.1 mm 0 mps 751 mmHg 93%
    02:00 +5°C° 0 mm 0 mps 751 mmHg 94%
    03:00 +5°C° 0 mm 0 mps 751 mmHg 94%
    04:00 +5°C° 0 mm 0 mps 751 mmHg 94%
    05:00 +5°C° 0 mm 0 mps 751 mmHg 95%
    06:00 +5°C° 0 mm 0 mps 751 mmHg 95%
    07:00 +5°C° 0 mm 0 mps 751 mmHg 96%
    08:00 +5°C° 0 mm 0 mps 751 mmHg 94%
    09:00 +6°C° 0 mm 0 mps 751 mmHg 92%
    10:00 +6°C° 0 mm 0 mps 751 mmHg 91%
    11:00 +7°C° 0 mm 0 mps 751 mmHg 88%
    12:00 +9°C° 0 mm 1 mps 751 mmHg 85%
    13:00 +9°C° 0 mm 1 mps 751 mmHg 82%
    14:00 +9°C° 0 mm 1 mps 751 mmHg 83%
    15:00 +8°C° 0 mm 0 mps 750 mmHg 84%
    16:00 +8°C° 0 mm 0 mps 750 mmHg 85%
    17:00 +8°C° 0 mm 0 mps 750 mmHg 87%
    18:00 +7°C° 0 mm 0 mps 750 mmHg 88%
    19:00 +7°C° 0 mm 0 mps 751 mmHg 90%
    20:00 +8°C° 0 mm 1 mps 751 mmHg 91%
    21:00 +7°C° 0 mm 1 mps 751 mmHg 91%
    22:00 +7°C° 0 mm 1 mps 751 mmHg 92%
    23:00 +7°C° 0 mm 1 mps 751 mmHg 92%

    27 January, Monday

    Time Temperature Precipitation Wind Pressure Humidity
    00:00 +7°C° 0 mm 1 mps 751 mmHg 93%
    01:00 +6°C° 0 mm 1 mps 751 mmHg 93%
    02:00 +6°C° 0 mm 1 mps 750 mmHg 93%
    03:00 +6°C° 0 mm 1 mps 750 mmHg 94%
    04:00 +5°C° 0 mm 1 mps 750 mmHg 94%
    05:00 +5°C° 0 mm 1 mps 751 mmHg 94%
    06:00 +5°C° 0 mm 1 mps 751 mmHg 94%
    07:00 +4°C° 0 mm 1 mps 751 mmHg 94%
    08:00 +5°C° 0 mm 1 mps 752 mmHg 91%
    09:00 +6°C° 0 mm 1 mps 752 mmHg 87%
    10:00 +6°C° 0 mm 0 mps 753 mmHg 84%
    11:00 +8°C° 0 mm 0 mps 753 mmHg 78%
    12:00 +10°C° 0 mm 1 mps 752 mmHg 73%
    13:00 +11°C° 0 mm 1 mps 752 mmHg 67%
    14:00 +10°C° 0 mm 1 mps 752 mmHg 69%
    15:00 +10°C° 0 mm 1 mps 752 mmHg 71%
    16:00 +10°C° 0 mm 1 mps 752 mmHg 73%
    17:00 +9°C° 0 mm 1 mps 753 mmHg 77%
    18:00 +8°C° 0 mm 1 mps 753 mmHg 81%
    19:00 +7°C° 0 mm 1 mps 753 mmHg 85%
    20:00 +7°C° 0 mm 1 mps 753 mmHg 87%
    21:00 +6°C° 0 mm 1 mps 753 mmHg 88%
    22:00 +6°C° 0 mm 1 mps 753 mmHg 89%
    23:00 +6°C° 0 mm 1 mps 753 mmHg 90%
    Show more